This is the latest recevied weather packets stored in our database for station/object KC9DRE. If no packets are shown the sender has not sent any weather packets the latest 10 day(s).
| Time | Temp. | Humidity | Pressure | Rain* | Wind** | Luminosity | Snow |
|---|---|---|---|---|---|---|---|
| 1787752423 | 19.44° C | 98% | 1017.6 hPa | 0 mm | - | 130 W/m² | - |
| 1787752119 | 19.44° C | 99% | 1017.6 hPa | 0 mm | - | 106 W/m² | - |
| 1787751813 | 19.44° C | 99% | 1017.7 hPa | 0 mm | - | 96 W/m² | - |
| 1787751508 | 19.44° C | 99% | 1017.7 hPa | 0 mm | - | 98 W/m² | - |
| 1787751203 | 19.44° C | 99% | 1017.5 hPa | 0 mm | - | 121 W/m² | - |
| 1787750899 | 18.89° C | 99% | 1017.4 hPa | 0 mm | - | 212 W/m² | - |
| 1787750594 | 18.89° C | 99% | 1017.6 hPa | 0 mm | - | 169 W/m² | - |
| 1787750289 | 18.33° C | 99% | 1017.6 hPa | 0 mm | - | 129 W/m² | - |
| 1787749989 | 18.33° C | 99% | 1017.4 hPa | 0 mm | - | 128 W/m² | - |
| 1787749685 | 17.78° C | 99% | 1017.4 hPa | 0 mm | - | 140 W/m² | - |
| 1787749381 | 17.78° C | 99% | 1017.2 hPa | 0 mm | - | 117 W/m² | - |
| 1787749080 | 17.22° C | 99% | 1017.6 hPa | 0 mm | - | 78 W/m² | - |
| 1787748775 | 17.22° C | 99% | 1017.6 hPa | 0 mm | - | 64 W/m² | - |
| 1787748475 | 16.67° C | 99% | 1017.6 hPa | 0 mm | - | 66 W/m² | - |
| 1787748171 | 16.67° C | 99% | 1017.6 hPa | 0 mm | - | 66 W/m² | - |
| 1787747871 | 16.67° C | 99% | 1017.4 hPa | 0 mm | - | 62 W/m² | - |
| 1787747566 | 16.67° C | 99% | 1017.4 hPa | 0 mm | - | 40 W/m² | - |
| 1787747266 | 16.11° C | 99% | 1017.4 hPa | 0 mm | - | 40 W/m² | - |
| 1787746962 | 16.11° C | 99% | 1017.4 hPa | 0 mm | - | 37 W/m² | - |
| 1787746657 | 16.11° C | 99% | 1017.2 hPa | 0 mm | - | 32 W/m² | - |
| 1787746356 | 15.56° C | 99% | 1017.3 hPa | 0 mm | - | 31 W/m² | - |
| 1787746055 | 15.56° C | 99% | 1017.2 hPa | 0 mm | - | 41 W/m² | - |
| 1787745754 | 15° C | 99% | 1017.4 hPa | 0 mm | - | 53 W/m² | - |
| 1787745453 | 15° C | 99% | 1017.1 hPa | 0 mm | - | 48 W/m² | - |
| 1787745148 | 14.44° C | 99% | 1017.2 hPa | 0 mm | - | 24 W/m² | - |
* Rain latest hour (hover to see other rain measurements)
** Current wind speed in m/s (hover to see current wind gust speed)